IK2CHZ-3 Weather Reports


time (UTC)temp
C
wind
direction
speed
KPH
gust
KPH
rain 1hr
cm
rain 24hr
cm
rain mn
cm
humidity
%
barometer
mb
20260507090719 16 304 3.2 8.0 0.00 0.23 0.00 72 1013.6
20260507085619 17 319 3.2 4.8 0.00 0.46 0.00 74 1013.7
20260507084519 17 301 4.8 11.3 0.00 0.53 0.00 71 1013.6
20260507083420 17 281 1.6 3.2 0.00 0.61 0.00 69 1013.4
20260507082319 17 304 3.2 4.8 0.00 0.64 0.00 67 1013.4
20260507081220 17 318 1.6 4.8 0.00 0.69 0.00 69 1013.5
20260507080119 17 30 0.0 0.0 0.00 0.74 0.00 68 1013.4
20260507075020 16 30 1.6 4.8 0.00 0.74 0.00 72 1013.3
20260507073918 16 355 0.0 0.0 0.00 0.74 0.00 75 1013.2
20260507072819 15 355 0.0 0.0 0.00 0.74 0.00 77 1013.2
20260507071718 15 355 0.0 0.0 0.00 0.74 0.00 79 1013.1
20260507070619 15 355 1.6 3.2 0.00 0.76 0.00 80 1013.0
20260507065520 15 355 0.0 3.2 0.00 0.76 0.00 81 1012.9
20260507064419 14 355 0.0 0.0 0.00 0.79 0.00 82 1012.8
20260506231318 13 355 1.6 4.8 0.00 1.45 0.00 81 1010.6
20260506230219 13 355 1.6 3.2 0.00 1.45 0.00 80 1010.5
20260506225120 13 0 1.6 4.8 0.00 1.45 0.00 80 1010.4
20260506224019 13 0 1.6 3.2 0.00 1.45 0.00 80 1010.4
20260506222920 13 11 1.6 3.2 0.00 1.45 0.00 80 1010.5
20260506221818 13 13 1.6 3.2 0.00 1.45 0.00 80 1010.7
20260506220718 14 13 0.0 0.0 0.00 1.45 0.00 78 1010.6
20260506215619 14 13 0.0 1.6 0.00 1.45 1.45 77 1010.5
20260506214520 14 13 1.6 1.6 0.00 1.45 1.45 76 1010.3
20260506213420 15 19 1.6 3.2 0.00 1.45 1.45 75 1010.4
20260506212319 14 23 3.2 4.8 0.00 1.45 1.45 76 1010.4
20260506211219 14 16 1.6 4.8 0.00 1.45 1.45 77 1010.3
20260506210118 14 10 1.6 4.8 0.00 1.45 1.45 78 1010.2
20260506205019 14 10 3.2 8.0 0.00 1.47 1.45 78 1010.3
20260506203918 14 11 1.6 4.8 0.00 1.50 1.45 77 1010.2
20260506202819 14 10 4.8 8.0 0.00 1.57 1.45 77 1010.1
20260506201720 14 3 4.8 8.0 0.00 1.60 1.45 77 1009.9
20260506200620 14 10 4.8 8.0 0.00 1.75 1.45 78 1009.9
20260506195518 13 354 4.8 9.7 0.00 1.75 1.45 81 1010.0
20260506194419 13 349 4.8 8.0 0.00 1.75 1.45 82 1009.9
20260506192219 14 332 1.6 4.8 0.00 1.75 1.45 79 1009.5
20260506191120 15 12 1.6 3.2 0.00 1.75 1.45 76 1009.4
20260506190019 15 13 1.6 4.8 0.00 1.75 1.45 76 1009.2
20260506184920 15 4 1.6 3.2 0.00 1.75 1.45 76 1009.0
20260506183818 15 6 1.6 4.8 0.00 1.75 1.45 75 1008.8
20260506182719 15 10 3.2 4.8 0.00 1.75 1.45 75 1008.7
20260506181618 15 24 1.6 4.8 0.00 1.75 1.45 74 1008.5
20260506180519 15 36 4.8 12.9 0.00 1.75 1.45 74 1008.3
20260506175419 15 0 3.2 8.0 0.00 1.75 1.45 74 1008.1
20260506174319 16 348 8.0 19.3 0.00 1.75 1.45 73 1008.1
20260506173218 16 10 8.0 12.9 0.00 1.75 1.45 74 1007.8
20260506172120 16 356 11.3 19.3 0.00 1.75 1.45 73 1007.8
20260506171020 17 1 4.8 11.3 0.00 1.75 1.45 70 1007.4
20260506165920 18 321 0.0 3.2 0.00 1.75 1.45 67 1007.0
20260506164819 21 298 3.2 8.0 0.00 1.75 1.45 47 1006.8
20260506163720 21 194 8.0 20.9 0.00 1.75 1.45 48 1006.2
20260506162619 21 186 4.8 9.7 0.00 1.75 1.45 48 1006.1
20260506161518 22 187 12.9 27.4 0.00 1.75 1.45 49 1006.0
20260506160419 21 143 4.8 11.3 0.00 1.75 1.45 59 1005.8
20260506155320 21 132 9.7 19.3 0.00 1.75 1.45 72 1006.1
20260506154219 21 105 9.7 12.9 0.00 1.75 1.45 73 1006.2
20260506153119 21 103 9.7 19.3 0.00 1.75 1.45 75 1006.2
20260506152019 20 104 9.7 14.5 0.00 1.75 1.45 74 1006.3
20260506150919 20 106 14.5 29.0 0.00 1.75 1.45 76 1006.3
20260506145820 20 107 9.7 19.3 0.00 1.75 1.45 76 1006.5
20260506144720 20 92 9.7 11.3 0.00 1.75 1.45 77 1006.8
20260506143619 20 104 8.0 19.3 0.00 1.75 1.45 76 1006.8
20260506142518 20 91 12.9 25.7 0.00 1.75 1.45 77 1006.9
20260506141419 20 123 9.7 4.8 0.00 1.75 1.45 77 1007.0
20260506140320 20 115 14.5 19.3 0.00 1.75 1.45 77 1007.3
20260506135219 20 113 9.7 16.1 0.00 1.75 1.45 77 1007.5
20260506134120 19 98 14.5 24.1 0.00 1.75 1.45 81 1007.6
20260506133018 18 104 12.9 22.5 0.00 1.75 1.45 79 1007.8
20260506131919 18 113 9.7 11.3 0.00 1.75 1.45 80 1007.9
20260506130820 18 119 8.0 16.1 0.00 1.78 1.45 80 1007.9
20260506125719 18 132 3.2 24.1 0.00 1.78 1.45 81 1008.0
20260506124619 18 89 11.3 19.3 0.00 1.78 1.45 81 1008.0
20260506123520 18 88 9.7 11.3 0.00 1.78 1.45 81 1008.0
20260506122418 18 106 9.7 14.5 0.00 1.78 1.45 81 1008.1
20260506121318 18 96 9.7 19.3 0.00 1.78 1.45 82 1008.3
20260506120219 18 106 9.7 24.1 0.00 1.78 1.45 83 1008.3
20260506115120 17 96 8.0 22.5 0.00 1.78 1.45 85 1008.4
20260506114020 17 107 8.0 19.3 0.00 1.78 1.45 86 1008.4
20260506112919 17 108 12.9 19.3 0.00 1.78 1.45 86 1008.6
20260506111819 17 82 11.3 20.9 0.00 1.78 1.45 88 1008.5
20260506110718 16 95 8.0 14.5 0.00 1.78 1.45 88 1008.5
20260506105618 17 100 14.5 22.5 0.00 1.78 1.45 88 1008.7
20260506104519 16 96 12.9 24.1 0.00 1.78 1.45 89 1008.8
20260506103420 16 79 12.9 16.1 0.05 1.78 1.45 90 1008.7
20260506102319 16 104 9.7 19.3 0.18 1.78 1.45 90 1008.9
20260506101220 16 102 16.1 20.9 0.20 1.78 1.45 90 1008.8
20260506100119 15 119 8.0 11.3 0.28 1.78 1.45 92 1008.8
20260506095019 15 103 4.8 16.1 0.51 1.78 1.45 92 1008.7
20260506093918 15 92 8.0 14.5 0.56 1.75 1.42 92 1008.5
20260506092819 15 104 9.7 19.3 0.51 1.65 1.32 92 1008.7
20260506091720 14 88 11.3 20.9 0.46 1.60 1.27 92 1008.9